This demonstration page uses our WeatherBlox Daily Observations layout. Learn more.

Left ArrowRight Arrow

Hourly Observations for April 28, 2018

Temp ( °F °C ) Dew Point ( °F °C ) Humidity (%) Winds ( mph kmh ) Pressure ( in mb ) Visibility ( mi km ) Precip ( " mm )
12:51 am 00:51 Clear 74 23.3 29 -1.7 19 19 E 13 20 29.76 1008 10 16 0.00 0.00
1:51 am 01:51 Clear 71 21.7 29 -1.7 21 21 E 8 13 29.75 1008 10 16 0.00 0.00
2:51 am 02:51 Clear 70 21.1 29 -1.7 22 22 E 8 13 29.74 1007 10 16 0.00 0.00
3:51 am 03:51 Clear 67 19.4 30 -1.1 25 25 E 9 15 29.74 1007 10 16 0.00 0.00
4:51 am 04:51 Clear 65 18.3 30 -1.1 27 27 SSE 8 13 29.75 1008 10 16 0.00 0.00
5:51 am 05:51 Sunny 63 17.2 30 -1.1 29 29 SSE 9 15 29.78 1008 10 16 0.00 0.00
6:51 am 06:51 Sunny 68 20 30 -1.1 24 24 SE 9 15 29.78 1009 10 16 0.00 0.00
7:51 am 07:51 Sunny 71 21.7 31 -0.6 23 23 SSE 9 15 29.80 1009 10 16 0.00 0.00
8:51 am 08:51 Sunny 75 23.9 31 -0.6 20 20 SSE 8 13 29.79 1009 10 16 0.00 0.00
9:51 am 09:51 Sunny 80 26.7 32 0 17 17 SE 7 11 29.77 1008 10 16 0.00 0.00
10:51 am 10:51 Sunny 83 28.3 32 0 16 16 SSE 9 15 29.75 1007 10 16 0.00 0.00
11:51 am 11:51 Sunny 87 30.6 31 -0.6 13 13 S 10 17 29.70 1006 10 16 0.00 0.00
12:51 pm 12:51 Sunny 89 31.7 28 -2.2 11 11 S 12 19 29.67 1005 10 16 0.00 0.00
1:51 pm 13:51 Sunny 91 32.8 24 -4.4 9 9 VRB 7 11 29.64 1004 10 16 0.00 0.00
2:51 pm 14:51 Sunny 93 33.9 19 -7.2 7 7 S 15 24 29.61 1003 10 16 0.00 0.00
3:51 pm 15:51 Sunny 90 32.2 23 -5 9 9 W 9 15 29.59 1002 10 16 0.00 0.00
4:51 pm 16:51 Sunny 90 32.2 24 -4.4 9 9 WNW 15 24 29.59 1002 10 16 0.00 0.00
5:51 pm 17:51 Sunny 88 31.1 23 -5 9 9 WNW 8 13 29.61 1003 10 16 0.00 0.00
6:51 pm 18:51 Mostly Sunny 84 28.9 30 -1.1 14 14 SSE 17 28 29.63 1003 10 16 0.00 0.00
7:51 pm 19:51 Clear 82 27.8 29 -1.7 14 14 VRB 5 7 29.66 1004 10 16 0.00 0.00
8:51 pm 20:51 Clear 79 26.1 29 -1.7 16 16 VRB 5 7 29.68 1005 10 16 0.00 0.00
9:51 pm 21:51 Clear 79 26.1 28 -2.2 15 15 NW 12 19 29.69 1005 10 16 0.00 0.00
10:51 pm 22:51 Clear 74 23.3 28 -2.2 18 18 NW 10 17 29.70 1006 10 16 0.00 0.00
11:51 pm 23:51 Clear 73 22.8 28 -2.2 19 19 NW 13 20 29.71 1006 10 16 0.00 0.00

Powered by AerisWeather